ASA65 PAWG-PAPG

Flight info

Callsign ASA65
Flight time 0h 10m
Altitude 6000
Route KAJBU5 KAJBU
Aircraft B737/M-SDE2E3FGHIRWXY/LB1

Departure

Time 2026-05-03 20:15
Airport Wrangell Airport (PAWG)

Arrival

Time 2026-05-03 20:25
Airport Petersburg James A Johnson Airport (PAPG)
Time Latitude Longitude Altitude Speed Heading
2026-05-03 20:15 56.48429 -132.34259 944 ft 170 kts 13°
2026-05-03 20:15 56.49303 -132.35605 1389 ft 220 kts 284°
2026-05-03 20:15 56.49423 -132.38649 1980 ft 277 kts 271°
2026-05-03 20:15 56.49530 -132.42583 2517 ft 329 kts 279°
2026-05-03 20:16 56.50091 -132.46739 2951 ft 354 kts 290°
2026-05-03 20:16 56.51097 -132.51119 3232 ft 406 kts 297°
2026-05-03 20:16 56.52414 -132.55643 4948 ft 413 kts 300°
2026-05-03 20:16 56.53189 -132.60417 7187 ft 404 kts 272°
2026-05-03 20:17 56.53633 -132.65575 6359 ft 452 kts 302°
2026-05-03 20:17 56.56130 -132.69417 5661 ft 499 kts 322°
2026-05-03 20:17 56.58769 -132.73930 5008 ft 528 kts 313°
2026-05-03 20:17 56.60997 -132.78790 4264 ft 469 kts 308°
2026-05-03 20:18 56.62899 -132.83151 3349 ft 416 kts 311°
2026-05-03 20:18 56.64764 -132.86729 2913 ft 369 kts 316°
2026-05-03 20:18 56.66661 -132.89555 2298 ft 338 kts 325°
2026-05-03 20:18 56.68608 -132.91734 1579 ft 317 kts 331°
2026-05-03 20:19 56.70485 -132.93448 1265 ft 291 kts 338°
2026-05-03 20:19 56.72369 -132.94345 939 ft 268 kts 352°
2026-05-03 20:19 56.73983 -132.95221 867 ft 224 kts 329°
2026-05-03 20:19 56.75115 -132.96980 651 ft 201 kts 319°
2026-05-03 20:20 56.76144 -132.98436 583 ft 174 kts 324°
2026-05-03 20:20 56.77034 -132.99687 597 ft 150 kts 323°
2026-05-03 20:20 56.77949 -133.00203 472 ft 140 kts 26°
2026-05-03 20:20 56.78665 -132.98996 327 ft 141 kts 36°
2026-05-03 20:21 56.79465 -132.98106 369 ft 138 kts 57°
2026-05-03 20:21 56.79811 -132.96394 160 ft 146 kts 70°
2026-05-03 20:21 56.80131 -132.94711 107 ft 145 kts 70°
2026-05-03 20:21 56.80450 -132.92966 753 ft 145 kts 71°
2026-05-03 20:22 56.81084 -132.91481 727 ft 162 kts 15°
2026-05-03 20:22 56.82159 -132.91805 837 ft 160 kts 334°
2026-05-03 20:22 56.82988 -132.93092 1000 ft 156 kts 303°
2026-05-03 20:22 56.83267 -132.94971 1096 ft 157 kts 265°
2026-05-03 20:23 56.82815 -132.96739 1083 ft 158 kts 225°
2026-05-03 20:23 56.82048 -132.98138 1047 ft 153 kts 233°
2026-05-03 20:23 56.81547 -132.99901 1172 ft 165 kts 249°
2026-05-03 20:23 56.81135 -133.01854 1201 ft 165 kts 250°
2026-05-03 20:24 56.80442 -133.03421 1235 ft 164 kts 195°
2026-05-03 20:24 56.79414 -133.02820 1204 ft 164 kts 126°
2026-05-03 20:24 56.79048 -133.00858 858 ft 167 kts 89°
2026-05-03 20:24 56.79325 -132.98790 413 ft 170 kts 68°
2026-05-03 20:25 56.79723 -132.96857 185 ft 161 kts 71°
2026-05-03 20:25 56.80064 -132.95056 79 ft 114 kts 70°
2026-05-03 20:25 56.80233 -132.94197 76 ft 52 kts 71°
2026-05-03 20:25 56.80344 -132.93623 80 ft 42 kts 70°
2026-05-03 20:26 56.80460 -132.93391 81 ft 18 kts 354°
2026-05-03 20:26 56.80520 -132.93433 80 ft 0 kts 306°
2026-05-03 20:26 56.80523 -132.93448 80 ft 5 kts 281°
2026-05-03 20:26 56.80486 -132.93597 78 ft 18 kts 236°
2026-05-03 20:27 56.80541 -132.93771 75 ft 19 kts 355°
2026-05-03 20:27 56.80619 -132.93710 76 ft 8 kts 282°
2026-05-03 20:27 56.80615 -132.93727 75 ft 0 kts 223°
2026-05-03 20:29 56.80614 -132.93727 75 ft 0 kts 223°